TimeEST,TemperatureF,Dew PointF,Humidity,Sea Level PressureIn,VisibilityMPH,Wind Direction,Wind SpeedMPH,Gust SpeedMPH,PrecipitationIn,Events,Conditions,WindDirDegrees,DateUTC
12:06 AM,28.4,26.6,93,29.88,2.5,NE,6.9,-,N/A,Snow,Light Snow,50,2012-12-29 05:06:00
12:30 AM,28.4,26.6,93,29.88,2.0,NE,6.9,-,N/A,Snow,Light Snow,50,2012-12-29 05:30:00
12:31 AM,28.4,26.6,93,29.87,2.0,NE,5.8,-,N/A,Snow,Light Snow,50,2012-12-29 05:31:00
12:36 AM,28.4,26.6,93,29.87,1.8,NE,5.8,-,N/A,Snow,Light Snow,50,2012-12-29 05:36:00
12:45 AM,28.4,26.6,93,29.87,2.0,NE,5.8,-,N/A,Snow,Light Snow,50,2012-12-29 05:45:00
12:55 AM,27.9,27.1,97,29.86,2.0,NE,5.8,-,0.07,Snow,Light Snow,50,2012-12-29 05:55:00
12:57 AM,28.4,26.6,93,29.86,2.0,NE,4.6,-,N/A,Snow,Light Snow,50,2012-12-29 05:57:00
1:20 AM,28.4,26.6,93,29.84,1.8,NNE,4.6,-,N/A,Snow,Light Snow,30,2012-12-29 06:20:00
1:37 AM,28.4,26.6,93,29.84,1.5,NNE,4.6,-,N/A,Snow,Light Snow,30,2012-12-29 06:37:00
1:38 AM,28.4,26.6,93,29.84,1.2,NNE,4.6,-,N/A,Snow,Light Snow,30,2012-12-29 06:38:00
1:49 AM,28.4,26.6,93,29.84,1.5,NNE,4.6,-,N/A,Snow,Light Snow,30,2012-12-29 06:49:00
1:52 AM,28.4,26.6,93,29.84,1.5,NNE,4.6,-,N/A,Snow,Light Snow,20,2012-12-29 06:52:00
1:55 AM,27.5,27.1,99,29.84,1.5,NNE,4.6,-,0.01,Snow,Light Snow,20,2012-12-29 06:55:00
2:24 AM,28.4,26.6,93,29.83,1.8,NNE,3.5,-,N/A,Snow,Light Snow,30,2012-12-29 07:24:00
2:30 AM,28.4,26.6,93,29.83,2.0,North,3.5,-,N/A,Snow,Light Snow,10,2012-12-29 07:30:00
2:37 AM,28.4,26.6,93,29.83,2.5,North,3.5,-,N/A,Snow,Light Snow,10,2012-12-29 07:37:00
2:47 AM,28.4,26.6,93,29.83,3.0,North,3.5,-,N/A,Snow,Light Snow,10,2012-12-29 07:47:00
2:55 AM,27.7,27.1,98,29.83,4.0,North,4.6,-,0.00,Snow,Light Snow,360,2012-12-29 07:55:00
3:14 AM,28.4,26.6,93,29.84,4.0,North,5.8,-,N/A,Snow,Light Snow,350,2012-12-29 08:14:00
3:21 AM,28.4,26.6,93,29.84,5.0,NNW,5.8,-,N/A,Snow,Light Snow,340,2012-12-29 08:21:00
3:25 AM,28.4,26.6,93,29.84,4.0,NNW,4.6,-,N/A,Snow,Light Snow,340,2012-12-29 08:25:00
3:55 AM,27.5,27.0,98,29.84,4.0,NNW,5.8,-,0.00,Snow,Light Snow,330,2012-12-29 08:55:00
4:14 AM,26.6,26.6,100,29.84,4.0,NNW,5.8,-,N/A,Snow,Light Snow,330,2012-12-29 09:14:00
4:25 AM,26.6,26.6,100,29.84,3.0,NNW,5.8,-,N/A,Snow,Light Snow,330,2012-12-29 09:25:00
4:50 AM,26.6,26.6,100,29.84,4.0,NW,6.9,-,N/A,Snow,Light Snow,320,2012-12-29 09:50:00
4:55 AM,27.5,26.8,97,29.84,4.0,NW,6.9,-,0.00,Snow,Light Snow,320,2012-12-29 09:55:00
5:05 AM,28.4,26.6,93,29.84,5.0,NNW,6.9,-,N/A,,Overcast,330,2012-12-29 10:05:00
5:09 AM,28.4,26.6,93,29.84,5.0,NNW,5.8,-,N/A,,Overcast,330,2012-12-29 10:09:00
5:18 AM,28.4,26.6,93,29.84,5.0,NW,5.8,-,N/A,,Overcast,320,2012-12-29 10:18:00
5:55 AM,27.7,26.8,96,29.84,6.0,NW,6.9,-,0.01,,Overcast,320,2012-12-29 10:55:00
5:56 AM,28.4,26.6,93,29.84,6.0,NW,6.9,-,N/A,,Overcast,320,2012-12-29 10:56:00
6:16 AM,28.4,26.6,93,29.85,6.0,NNW,6.9,-,N/A,,Overcast,330,2012-12-29 11:16:00
6:38 AM,28.4,26.6,93,29.85,6.0,NW,6.9,-,N/A,,Overcast,320,2012-12-29 11:38:00
6:55 AM,27.9,26.6,95,29.85,6.0,NW,6.9,-,0.01,,Overcast,320,2012-12-29 11:55:00
7:55 AM,27.9,26.4,94,29.87,7.0,NW,8.1,-,N/A,,Overcast,310,2012-12-29 12:55:00
8:10 AM,28.4,26.6,93,29.87,5.0,WNW,9.2,-,N/A,,Overcast,300,2012-12-29 13:10:00
8:30 AM,28.4,26.6,93,29.88,5.0,WNW,8.1,-,N/A,,Overcast,300,2012-12-29 13:30:00
8:37 AM,28.4,26.6,93,29.88,5.0,WNW,9.2,-,N/A,Snow,Light Snow,300,2012-12-29 13:37:00
8:55 AM,28.0,26.6,94,29.88,5.0,WNW,10.4,-,0.00,Snow,Light Snow,290,2012-12-29 13:55:00
9:34 AM,28.4,26.6,93,29.89,1.5,WNW,6.9,-,N/A,Snow,Light Snow,290,2012-12-29 14:34:00
9:55 AM,28.6,27.7,96,29.89,1.5,WNW,9.2,-,0.00,Snow,Light Snow,290,2012-12-29 14:55:00
10:30 AM,28.4,28.4,100,29.87,1.5,WNW,6.9,-,N/A,Snow,Light Snow,290,2012-12-29 15:30:00
10:54 AM,30.2,28.4,93,29.92,2.0,West,8.1,-,N/A,Snow,Light Snow,270,2012-12-29 15:54:00
10:55 AM,29.7,28.9,97,29.92,2.0,West,9.2,-,0.00,Snow,Light Snow,270,2012-12-29 15:55:00
11:55 AM,30.7,29.3,94,29.92,2.0,West,10.4,-,0.00,Snow,Light Snow,270,2012-12-29 16:55:00
12:55 PM,31.5,30.0,94,29.91,1.5,West,12.7,-,0.00,Snow,Light Snow,260,2012-12-29 17:55:00
1:20 PM,32.0,30.2,93,29.87,2.0,West,12.7,-,N/A,Snow,Light Snow,270,2012-12-29 18:20:00
1:31 PM,30.2,30.2,100,29.91,1.5,West,15.0,-,N/A,Snow,Light Snow,270,2012-12-29 18:31:00
1:55 PM,29.3,28.0,95,29.92,1.5,West,19.6,25.3,0.01,Snow,Light Snow,270,2012-12-29 18:55:00
2:07 PM,28.4,28.4,100,29.93,2.0,West,18.4,24.2,N/A,Snow,Light Snow,270,2012-12-29 19:07:00
2:20 PM,28.4,26.6,93,29.89,1.5,West,15.0,24.2,N/A,Snow,Light Snow,270,2012-12-29 19:20:00
2:30 PM,28.4,26.6,93,29.89,2.0,West,16.1,24.2,N/A,Snow,Light Snow,270,2012-12-29 19:30:00
2:37 PM,28.4,26.6,93,29.94,5.0,West,18.4,25.3,N/A,Snow,Light Snow,270,2012-12-29 19:37:00
2:47 PM,28.4,26.6,93,29.95,4.0,West,13.8,24.2,N/A,Snow,Light Snow,270,2012-12-29 19:47:00
2:55 PM,28.0,26.1,92,29.95,4.0,West,16.1,21.9,0.00,Snow,Light Snow,260,2012-12-29 19:55:00
3:26 PM,26.6,24.8,93,29.97,10.0,West,18.4,25.3,N/A,Rain,Light Freezing Rain,270,2012-12-29 20:26:00
3:31 PM,26.6,24.8,93,29.98,10.0,West,17.3,25.3,N/A,Rain,Light Freezing Rain,270,2012-12-29 20:31:00
3:42 PM,26.6,24.8,93,29.94,10.0,West,19.6,26.5,N/A,Snow,Light Snow,270,2012-12-29 20:42:00
3:55 PM,27.0,24.1,89,29.99,10.0,West,16.1,24.2,0.00,Snow,Light Snow,270,2012-12-29 20:55:00
4:55 PM,26.1,23.0,88,30.02,10.0,West,12.7,-,0.00,Snow,Light Snow,270,2012-12-29 21:55:00
5:55 PM,26.2,22.8,87,30.05,10.0,West,11.5,-,0.00,Snow,Light Snow,270,2012-12-29 22:55:00
6:55 PM,26.6,22.1,83,30.08,10.0,West,12.7,-,0.00,,Overcast,260,2012-12-29 23:55:00
7:49 PM,26.6,21.2,80,30.10,10.0,West,15.0,-,N/A,Snow,Light Snow,270,2012-12-30 00:49:00
7:55 PM,26.1,21.6,83,30.11,10.0,West,13.8,-,0.00,Snow,Light Snow,270,2012-12-30 00:55:00
8:55 PM,25.7,21.7,85,30.14,10.0,West,12.7,21.9,0.00,Snow,Light Snow,260,2012-12-30 01:55:00
9:22 PM,24.8,21.2,86,30.14,10.0,West,13.8,-,N/A,,Overcast,260,2012-12-30 02:22:00
9:34 PM,24.8,21.2,86,30.15,10.0,West,13.8,23.0,N/A,,Overcast,260,2012-12-30 02:34:00
9:55 PM,24.4,20.5,85,30.17,10.0,West,16.1,23.0,0.00,,Overcast,270,2012-12-30 02:55:00
10:04 PM,24.8,19.4,80,30.17,10.0,West,17.3,-,N/A,,Overcast,270,2012-12-30 03:04:00
10:44 PM,23.0,19.4,86,30.19,10.0,West,12.7,-,N/A,,Overcast,270,2012-12-30 03:44:00
10:54 PM,23.0,19.4,86,30.20,10.0,West,13.8,-,N/A,Snow,Light Snow,260,2012-12-30 03:54:00
10:55 PM,23.5,19.8,85,30.20,10.0,West,12.7,-,0.00,Snow,Light Snow,270,2012-12-30 03:55:00
11:19 PM,23.0,19.4,86,30.22,10.0,West,16.1,-,N/A,,Overcast,260,2012-12-30 04:19:00
11:55 PM,23.4,19.8,86,30.23,10.0,West,15.0,-,0.00,,Overcast,270,2012-12-30 04:55:00